Estación de Hornitos

Ultimos registro cada 15 minutos 66
Estación Fecha / Hora Temperatura Humedad Lluvia Velocidad Dirección Radiación Presion
66 Hornitos 09-05-2026 16:15 25,8 18 0 0,4 339 283 1009,7
65 Hornitos 09-05-2026 16:00 26,1 15 0 0,9 8 325 1009,7
64 Hornitos 09-05-2026 15:45 25,2 19 0 1,3 35 362 1009,6
63 Hornitos 09-05-2026 15:30 25,8 16 0 0 355 404 1009,9
62 Hornitos 09-05-2026 15:15 25,2 16 0 1,3 29 438 1010,1
61 Hornitos 09-05-2026 15:00 24,9 19 0 0,9 52 469 1009,8
60 Hornitos 09-05-2026 14:45 24,2 21 0 2,2 71 497 1010,1
59 Hornitos 09-05-2026 14:30 23,9 25 0 0,9 20 522 1010
58 Hornitos 09-05-2026 14:15 23,7 25 0 1,8 43 547 1010,2
57 Hornitos 09-05-2026 14:00 23,4 25 0 1,8 47 568 1010,3
56 Hornitos 09-05-2026 13:45 22,9 27 0 1,8 39 114 1010,4
55 Hornitos 09-05-2026 13:30 22,2 30 0 1,8 63 46 1010,5
54 Hornitos 09-05-2026 13:15 21,5 33 0 1,3 35 128 1010,7
53 Hornitos 09-05-2026 13:00 21,1 33 0 1,8 72 83 1011
52 Hornitos 09-05-2026 12:45 20,4 36 0 0,9 8 396 1011,3
51 Hornitos 09-05-2026 12:30 19,8 38 0 1,8 31 142 1011,5
50 Hornitos 09-05-2026 12:15 18,8 37 0 2,2 360 185 1011,5
49 Hornitos 09-05-2026 12:00 18,2 41 0 0,9 37 109 1011,5
48 Hornitos 09-05-2026 11:45 17,5 46 0 0,4 19 188 1011,9
47 Hornitos 09-05-2026 11:30 16,9 57 0 2,7 52 584 1012
46 Hornitos 09-05-2026 11:15 16,3 59 0 0,9 349 566 1012,2
45 Hornitos 09-05-2026 11:00 15,7 62 0 0 8 541 1012,4
44 Hornitos 09-05-2026 10:45 14,7 65 0 1,8 41 519 1012,4
43 Hornitos 09-05-2026 10:30 14,3 68 0 3,1 69 490 1012,6
42 Hornitos 09-05-2026 10:15 13,8 68 0 1,3 11 459 1012,7
41 Hornitos 09-05-2026 10:00 13,4 70 0 0,9 16 425 1012,6
40 Hornitos 09-05-2026 09:45 12,7 72 0 0,4 347 392 1012,8
39 Hornitos 09-05-2026 09:30 11,6 74 0 0,4 43 353 1012,7
38 Hornitos 09-05-2026 09:15 10,9 73 0 0,4 327 313 1012,7
37 Hornitos 09-05-2026 09:00 9,8 75 0 1,3 63 279 1012,7
36 Hornitos 09-05-2026 08:45 8,3 79 0 0,4 63 234 1012,6
35 Hornitos 09-05-2026 08:30 6,6 86 0 0 222 193 1012,4
34 Hornitos 09-05-2026 08:15 4,4 78 0 0 222 148 1012,5
33 Hornitos 09-05-2026 08:00 3,9 76 0 0 222 14 1012,2
32 Hornitos 09-05-2026 07:45 3,8 76 0 0 222 12 1012,2
31 Hornitos 09-05-2026 07:30 3,8 76 0 0 222 7 1012
30 Hornitos 09-05-2026 07:15 3,8 75 0 0 222 0 1011,9
29 Hornitos 09-05-2026 07:00 3,8 75 0 0 222 0 1011,9
28 Hornitos 09-05-2026 06:45 3,9 75 0 0 222 0 1011,6
27 Hornitos 09-05-2026 06:30 4 75 0 0 222 0 1011,6
26 Hornitos 09-05-2026 06:15 4,2 75 0 0 222 0 1011,3
25 Hornitos 09-05-2026 06:00 4,7 75 0 0 222 0 1011,3
24 Hornitos 09-05-2026 05:45 4,8 76 0 0 221 0 1011,1
23 Hornitos 09-05-2026 05:30 4,8 74 0 0 220 0 1011,1
22 Hornitos 09-05-2026 05:15 5,1 75 0 0 220 0 1011,1
21 Hornitos 09-05-2026 05:00 4,9 74 0 0 220 0 1011,1
20 Hornitos 09-05-2026 04:45 4,7 73 0 0 220 0 1011,1
19 Hornitos 09-05-2026 04:30 4,8 73 0 0 220 0 1011,1
18 Hornitos 09-05-2026 04:15 4,8 72 0 0 220 0 1011,4
17 Hornitos 09-05-2026 04:00 5,1 71 0 0 220 0 1011,3
16 Hornitos 09-05-2026 03:45 5,4 72 0 0 220 0 1011,4
15 Hornitos 09-05-2026 03:30 5,2 71 0 0 220 0 1011,4
14 Hornitos 09-05-2026 03:15 5,6 71 0 0 220 0 1011,3
13 Hornitos 09-05-2026 03:00 5,6 70 0 0 220 0 1011,3
12 Hornitos 09-05-2026 02:45 5,9 70 0 0 220 0 1011,4
11 Hornitos 09-05-2026 02:30 6,1 69 0 0 220 0 1011,4
10 Hornitos 09-05-2026 02:15 6,2 70 0 0 220 0 1011,3
9 Hornitos 09-05-2026 02:00 6,4 68 0 0 220 0 1011,4
8 Hornitos 09-05-2026 01:45 6,8 68 0 0 220 0 1011,5
7 Hornitos 09-05-2026 01:30 7,2 68 0 0 220 0 1011,5
6 Hornitos 09-05-2026 01:15 7,6 69 0 0 220 0 1011,4
5 Hornitos 09-05-2026 01:00 7,2 69 0 0 220 0 1011,5
4 Hornitos 09-05-2026 00:45 7,3 68 0 0 220 0 1011,6
3 Hornitos 09-05-2026 00:30 7,4 68 0 0 220 0 1011,5
2 Hornitos 09-05-2026 00:15 7,5 68 0 0 220 0 1011,5
1 Hornitos 09-05-2026 00:00 7,6 67 0 0 220 0 1011,6